Location: Armidale
(30.5016°S, 151.6662°E)
Time: 13:25:30
(UTC+10:00)

BEESAT 3 - Pass Details

Date: 31 July 2021
Orbit: 483 x 509 km, 64.9° (Epoch: 26 September)

Event Time Altitude Azimuth Distance (km) Brightness Sun altitude
Rises 18:20:00 0° 330° (NNW) 2,606 ? -13.3°
Reaches altitude 10° 18:22:10 10° 327° (NNW) 1,725 ? -13.8°
Maximum altitude 18:26:01 72° 242° (WSW) 540 ? -14.6°
Enters shadow 18:29:28 13° 158° (SSE) 1,562 ? -15.3°
